Wind_Speed
60 61 62 64 65 65 66 66 67 67 67 67 67 67 68 69 70 71 71 72 72 72 72 72 71 71 71 70 71 72 74 75 76 74 72 70 71 74 76 77 73 70 70 69 65 64 63 65 68 72 76 75 72 69 67 63 58 55 54 52 49 47 48 47 45 42 39 36 35 35 34 32 32 30 29 28 27 25 24 24 24 23 20 18 17
63 63 63 65 66 67 67 68 68 68 68 68 68 69 70 71 72 72 72 72 72 72 72 72 72 72 72 72 72 74 75 75 75 74 72 71 73 76 77 74 70 70 70 67 64 64 66 70 73 75 75 72 70 69 65 59 55 54 52 49 46 45 45 43 41 39 36 34 34 34 33 32 30 29 27 25 24 24 23 23 23 21 18 17 16
66 65 65 66 67 68 69 69 68 68 68 68 69 70 72 73 73 73 73 73 73 73 73 73 74 74 74 74 74 75 76 76 75 74 71 71 75 77 76 72 70 70 69 66 66 68 71 73 74 74 73 71 69 66 61 56 53 52 49 46 44 43 41 39 38 36 34 32 32 33 33 32 29 27 25 24 23 22 22 21 21 19 17 16 14
67 67 67 67 69 70 70 70 69 69 69 70 71 73 74 75 75 75 74 74 75 75 75 75 75 75 75 75 76 77 77 77 76 74 72 74 78 77 74 72 71 70 70 69 69 72 73 73 73 72 70 68 66 62 57 53 52 49 45 43 42 40 38 37 36 34 32 32 32 33 33 31 28 25 23 23 22 21 21 20 19 17 16 15 13
69 69 69 70 71 72 72 71 71 71 71 72 73 75 76 76 76 76 76 76 76 76 77 77 77 78 77 77 78 78 79 78 78 77 76 79 80 76 72 72 72 72 71 70 70 72 72 72 71 69 67 65 61 57 53 51 49 46 42 41 39 37 36 35 34 33 32 31 32 33 32 29 25 23 22 22 21 20 19 18 17 16 15 14 13
72 72 72 73 73 74 73 72 72 72 73 74 75 76 77 78 78 78 77 77 77 78 78 79 79 80 80 79 79 80 81 80 79 78 78 80 78 74 72 72 73 72 71 70 70 71 70 69 67 65 63 60 57 53 51 48 45 42 40 39 37 35 34 34 33 32 32 32 32 32 30 26 23 21 20 20 18 18 17 16 15 15 14 13 12
75 75 75 75 76 75 75 74 74 74 74 75 76 77 78 78 79 79 79 79 79 79 80 80 81 81 82 81 81 81 81 80 78 78 78 78 75 72 72 73 74 73 71 70 70 69 67 65 63 61 58 56 54 51 48 45 42 40 38 36 35 34 33 33 32 32 31 31 31 30 27 22 20 19 19 19 17 16 15 15 14 13 13 13 13
78 78 78 78 78 77 76 76 75 75 76 77 77 77 78 79 79 80 80 80 80 81 81 82 82 82 82 82 81 81 80 78 77 77 76 75 74 73 74 74 74 72 70 68 67 65 63 61 58 56 54 53 51 48 45 42 39 37 36 34 33 33 33 32 31 31 31 31 30 27 23 19 18 19 19 19 17 15 15 14 14 14 14 14 15
81 81 80 80 79 79 78 77 77 77 77 77 78 78 79 79 80 81 81 81 82 82 82 82 82 82 81 80 79 78 78 77 76 76 75 74 73 73 74 73 72 70 68 65 63 61 59 57 55 54 52 50 47 45 43 39 37 35 34 32 32 32 32 31 30 30 31 31 28 24 21 18 18 19 18 18 17 16 15 14 14 14 14 15 15
82 83 83 82 81 80 80 79 79 79 78 78 78 79 79 80 81 81 82 82 82 82 82 81 81 79 78 77 76 76 76 76 75 75 74 73 72 72 71 70 68 67 65 62 60 58 57 56 54 52 50 47 44 42 41 37 35 34 32 31 31 31 30 28 28 30 31 29 25 23 22 21 21 21 20 19 18 17 15 14 14 14 13 13 13
84 84 84 83 82 81 81 80 80 79 79 79 79 79 80 80 81 82 82 82 82 81 80 79 77 76 75 74 74 75 75 74 74 73 72 71 70 68 67 66 65 64 63 60 58 57 57 55 53 50 48 45 42 40 38 35 33 32 30 30 30 29 27 26 28 30 30 26 23 23 23 23 24 24 23 22 20 18 16 15 14 14 13 13 12
84 84 84 83 82 81 81 81 81 80 80 80 80 80 80 81 81 81 81 81 80 78 77 76 75 74 74 74 74 74 73 72 71 70 68 66 65 64 64 64 64 63 62 60 57 57 55 54 51 48 45 42 39 37 35 32 31 30 29 29 29 27 24 25 28 29 25 22 22 23 23 23 23 24 24 23 22 20 18 16 15 15 15 14 14
84 84 83 83 82 82 81 81 81 81 80 80 80 80 80 80 79 79 78 77 77 76 76 75 74 74 73 73 72 72 70 68 66 64 63 62 63 63 63 63 63 62 61 59 57 56 54 52 50 46 42 38 36 33 31 30 30 29 27 28 27 24 23 25 27 26 22 22 23 24 23 22 22 22 23 22 22 21 20 18 17 16 16 16 16
83 83 83 83 82 81 81 81 81 80 80 79 79 78 78 77 77 76 76 75 75 75 75 74 74 73 72 71 69 67 65 63 61 61 62 63 64 63 63 62 62 61 61 59 57 55 53 50 47 42 38 35 32 30 29 29 29 28 26 26 25 22 22 25 26 24 23 24 25 24 22 22 21 21 22 22 22 21 20 20 19 18 17 17 17
83 82 82 82 81 81 80 80 80 79 78 78 77 77 76 76 76 76 75 75 75 75 74 73 72 71 69 67 65 63 61 61 62 63 64 64 63 62 61 61 62 61 60 59 57 54 51 48 44 39 36 32 28 27 27 28 29 26 24 25 23 20 22 24 25 25 23 24 24 22 21 20 19 20 20 21 22 23 22 22 21 20 19 18 18
82 82 81 81 81 80 80 80 79 78 78 77 77 77 77 77 76 76 75 75 74 73 72 71 70 68 66 64 62 61 62 63 63 63 62 61 60 60 61 61 61 61 60 59 56 52 48 44 40 36 33 29 25 24 26 28 28 24 22 24 23 20 21 23 25 26 23 23 22 21 21 20 19 19 19 20 21 23 24 24 23 22 21 20 20
82 81 81 80 80 80 80 79 79 78 78 77 77 77 77 76 76 75 74 73 72 71 70 68 67 65 63 62 61 61 62 61 60 59 58 58 59 59 60 59 59 58 58 56 54 50 46 42 37 32 28 25 22 23 26 27 26 23 21 23 23 21 21 23 26 26 22 22 22 22 23 23 21 20 19 19 20 21 22 24 25 25 23 22 22
81 81 80 80 80 80 80 79 79 78 77 77 76 76 76 75 73 72 71 70 69 68 67 66 64 63 61 60 60 60 60 57 56 56 57 59 58 56 56 55 54 55 54 52 50 47 44 40 34 29 25 22 21 23 25 26 25 23 22 22 23 22 22 23 26 24 21 22 23 24 24 23 21 19 18 18 19 20 21 23 25 26 25 24 23
81 80 80 80 80 80 79 79 78 77 76 76 75 75 73 72 71 70 69 68 67 66 65 63 62 60 59 59 58 57 56 55 56 57 58 57 55 52 51 50 50 49 49 48 46 44 41 37 31 26 22 21 21 23 24 25 25 24 22 21 22 22 22 24 25 23 21 22 23 24 23 21 18 17 18 18 19 19 20 21 22 25 26 25 24
80 80 80 80 80 79 79 78 77 76 75 74 74 73 70 69 69 68 68 66 64 62 61 59 58 57 56 56 55 55 55 56 57 56 54 51 49 47 46 46 44 43 43 43 43 42 39 34 29 23 21 22 23 23 23 25 26 25 23 22 22 22 22 23 23 21 21 22 24 24 22 20 19 19 21 23 22 20 19 19 20 22 25 25 24
80 79 79 80 79 79 79 78 76 75 74 73 72 71 70 69 68 67 65 63 61 59 58 56 55 53 53 54 54 55 56 55 52 49 47 46 46 45 43 42 40 41 41 42 41 39 36 32 27 22 21 23 23 23 23 26 27 26 25 24 22 22 22 22 22 20 21 24 25 24 23 23 24 26 27 27 26 23 21 19 19 20 22 24 24
80 79 79 79 79 79 78 76 75 74 73 73 72 71 70 69 68 65 63 61 60 58 56 54 53 52 53 54 54 53 52 49 45 44 44 44 44 43 41 39 41 42 41 40 38 36 33 29 25 22 22 22 22 23 25 27 28 27 26 25 23 21 20 21 21 21 22 25 25 24 24 26 28 29 29 28 27 25 23 21 19 19 20 23 24
79 78 78 78 77 77 75 75 74 74 73 73 72 71 70 68 66 63 61 60 58 56 55 53 53 54 54 52 50 48 45 43 41 42 43 43 43 41 40 41 43 43 40 38 36 33 30 27 24 22 22 22 22 23 26 29 30 29 28 26 23 20 19 19 20 22 23 24 24 24 25 27 29 30 30 28 27 26 24 22 20 18 19 22 25
72 73 74 74 75 75 74 74 73 73 74 73 71 69 67 65 62 60 59 57 56 54 53 52 52 51 49 48 45 43 41 40 39 40 42 42 42 41 42 43 43 41 40 39 35 30 28 26 25 23 23 23 24 26 29 32 32 32 30 26 23 20 17 18 20 23 24 24 25 26 27 29 31 31 30 28 27 27 26 22 19 18 19 20 24
50 53 56 60 63 65 65 65 64 64 64 64 63 60 57 56 54 54 53 52 51 50 50 48 46 44 43 42 41 40 39 38 39 40 42 43 42 43 43 43 42 40 39 37 32 29 29 28 26 25 24 24 26 29 33 35 36 35 30 25 23 20 17 17 19 22 25 26 26 27 29 31 32 32 30 28 27 27 27 24 20 18 18 20 22
49 47 48 51 55 57 57 56 54 52 51 51 49 46 45 45 45 46 47 47 47 46 46 44 42 41 39 37 37 38 38 37 38 40 41 42 42 42 42 42 41 39 37 33 30 30 31 29 27 26 25 25 27 29 34 37 38 34 28 25 22 19 17 18 20 22 26 28 27 28 31 32 33 31 29 29 29 28 29 27 22 19 18 19 20
64 61 57 56 56 58 58 57 53 49 47 45 44 43 43 43 42 41 41 42 42 43 43 43 41 39 37 36 37 37 37 37 38 39 41 42 42 42 42 41 39 37 35 33 33 33 34 32 30 28 27 28 30 31 34 35 34 30 25 25 22 18 17 18 21 23 27 29 28 30 33 33 32 31 30 30 30 29 30 30 25 21 20 20 21
69 67 65 62 60 60 60 58 56 52 47 44 44 45 44 42 40 38 37 36 37 39 40 39 39 37 36 37 38 38 38 38 39 40 42 43 43 43 43 41 38 36 35 35 35 36 36 35 32 30 30 32 34 33 33 32 31 27 24 24 22 18 18 20 22 24 27 28 30 32 33 33 31 30 31 32 31 30 31 31 26 22 21 21 22
66 66 66 65 63 62 61 59 58 52 44 41 41 39 39 39 37 33 31 31 33 34 35 36 37 37 37 37 39 40 40 41 42 43 43 44 44 44 42 40 39 38 37 37 36 36 37 36 33 31 33 35 34 32 31 29 29 26 23 23 20 18 20 21 23 25 27 28 30 33 33 32 31 30 31 32 32 31 31 30 27 23 20 19 19
63 63 63 63 62 60 59 57 56 51 41 37 37 35 36 36 34 30 29 29 31 33 35 38 39 39 38 38 40 41 43 44 44 44 45 45 45 44 42 41 41 40 40 38 37 37 37 35 33 32 34 34 33 32 30 28 27 25 22 22 21 20 23 24 25 27 28 28 31 32 32 32 31 30 31 32 32 31 30 29 27 23 20 18 18
61 62 61 61 59 58 57 55 53 51 46 40 37 36 34 32 29 28 29 30 33 36 38 40 41 40 40 40 41 42 44 45 45 46 47 48 47 45 43 42 42 42 42 40 39 38 35 33 32 31 32 33 33 33 30 28 27 24 22 22 22 23 25 27 28 28 28 29 31 32 31 31 30 30 31 32 31 30 29 29 27 24 21 20 20
61 61 60 59 58 56 55 53 51 49 49 47 39 35 33 31 31 30 30 33 36 39 41 41 40 39 41 41 43 44 45 47 47 49 52 52 50 46 44 44 44 45 45 43 41 38 34 32 31 32 33 34 34 32 30 28 26 23 23 24 25 25 27 29 29 29 29 30 31 31 31 31 30 30 31 31 30 29 28 28 28 27 25 24 23
62 61 60 59 58 56 55 53 52 49 48 45 38 35 37 37 37 36 36 38 41 43 43 41 38 38 40 41 44 46 48 50 51 53 55 54 51 49 48 47 47 47 46 43 40 37 35 34 34 35 36 35 34 32 30 28 24 23 25 26 26 27 28 30 30 30 31 31 31 31 31 31 30 30 30 29 28 27 27 27 28 28 27 27 26
61 60 59 58 57 57 56 53 51 50 47 42 36 36 40 40 40 41 42 45 45 44 43 40 39 39 40 41 44 49 51 54 54 55 55 53 53 52 49 48 46 44 42 40 39 38 38 37 36 37 37 35 34 33 31 27 23 23 27 28 29 30 31 31 32 33 32 31 30 31 30 30 30 29 28 27 26 25 25 25 25 26 27 27 27
60 59 58 57 56 55 55 53 51 51 48 43 39 39 40 39 41 43 43 46 44 42 42 41 41 42 43 44 47 49 51 52 53 54 54 53 53 52 49 47 46 44 44 43 43 42 42 40 39 38 37 36 34 33 30 24 21 24 29 31 32 33 33 33 34 34 32 30 30 30 29 29 29 28 28 26 25 24 23 23 24 25 28 28 27
60 59 57 55 54 54 53 53 51 52 51 46 41 40 41 39 38 41 41 41 42 41 42 43 44 44 45 45 45 46 48 49 51 51 51 51 51 51 49 48 48 48 48 47 46 44 42 41 40 38 37 36 34 31 27 22 22 27 31 34 34 33 33 34 35 34 32 31 30 29 29 30 30 30 28 26 25 24 23 23 24 26 28 29 30
59 58 56 54 53 53 52 53 52 53 53 49 45 41 42 42 39 40 40 39 41 41 42 43 43 44 44 43 43 44 46 48 49 49 49 49 49 49 48 47 47 47 46 46 44 41 40 39 38 36 35 34 31 28 26 24 26 31 34 34 33 31 33 35 35 33 31 31 30 30 31 31 31 31 30 28 27 26 26 26 27 27 28 30 32
59 57 55 53 53 52 52 53 53 54 54 53 52 48 47 49 46 44 43 42 43 43 44 44 44 44 44 44 44 45 46 47 49 50 50 49 48 48 48 46 44 43 42 42 40 39 38 37 36 34 33 32 30 27 27 28 29 32 33 32 32 33 35 36 34 31 30 30 31 31 32 32 32 33 31 30 30 29 29 29 29 29 30 30 33
56 55 54 53 52 52 52 53 53 54 55 55 57 56 54 53 52 49 48 47 47 48 48 49 48 48 47 47 47 47 47 48 49 50 50 49 48 47 45 43 42 40 39 39 38 37 36 35 34 32 31 30 28 26 26 27 29 31 32 33 34 35 35 34 32 31 31 32 33 33 32 33 33 33 32 32 32 32 31 31 32 32 33 33 34
53 52 52 51 52 52 52 52 53 54 55 55 56 57 57 57 56 54 53 53 52 52 52 52 52 52 50 50 49 49 48 48 48 47 47 46 45 43 41 40 38 37 37 37 37 36 34 33 31 30 29 29 28 28 28 29 31 34 36 38 39 36 33 33 32 32 34 35 35 33 32 33 34 33 33 34 34 34 34 34 34 35 36 37 37
50 50 49 50 50 51 51 52 53 53 54 55 55 56 57 58 59 59 58 58 58 58 57 56 54 53 52 50 49 48 46 45 44 44 44 43 41 40 39 37 36 35 35 36 36 35 33 31 30 29 29 30 30 31 32 33 36 39 42 43 41 37 34 35 35 36 37 36 34 32 33 34 34 35 37 37 37 36 36 36 37 38 39 40 39
48 47 47 48 48 49 51 51 52 53 54 54 55 56 57 58 60 61 61 60 60 60 60 58 55 53 50 48 46 44 43 42 42 43 43 42 40 39 39 39 39 38 38 37 36 34 32 30 29 30 31 32 33 33 35 36 38 41 43 43 40 38 36 36 36 35 35 34 34 34 36 37 38 40 40 40 39 38 38 39 40 41 41 40 38
46 46 46 46 47 48 49 51 52 52 53 53 54 55 56 57 59 60 62 63 62 61 60 57 53 49 46 45 43 43 42 41 41 42 42 42 41 41 41 41 41 40 39 37 35 34 32 30 30 31 32 34 35 36 37 39 40 42 44 44 41 39 37 37 36 35 36 36 37 39 40 41 42 43 41 40 41 40 40 41 42 42 41 39 39
44 44 45 45 46 47 48 49 50 51 52 52 53 54 55 57 58 60 61 62 62 61 57 53 49 46 45 45 43 41 40 39 40 40 41 42 43 43 42 41 40 40 38 36 34 33 32 31 30 30 32 33 35 36 37 38 40 41 42 44 44 43 41 41 41 41 41 42 42 43 43 44 44 42 41 40 40 40 41 42 42 41 41 41 40
43 43 44 44 45 46 47 48 48 49 50 51 52 53 54 55 57 58 59 59 58 56 52 49 47 47 46 45 44 41 40 40 40 40 39 40 41 41 40 40 39 39 37 35 33 32 32 31 29 29 29 30 32 32 33 34 34 35 37 40 43 44 44 43 44 45 46 46 45 44 44 44 43 41 40 39 38 40 41 41 40 41 42 42 42
43 43 43 43 44 45 45 46 47 48 48 49 50 51 52 54 54 55 56 55 54 52 50 48 48 48 48 47 46 45 45 45 43 42 40 38 37 36 36 37 37 36 35 33 32 31 31 29 28 28 28 28 29 29 29 29 29 31 33 36 39 41 41 41 41 43 44 43 42 42 43 42 41 40 39 38 39 41 41 40 39 41 42 42 42
43 43 43 42 43 43 43 44 45 46 47 48 49 49 50 51 52 52 53 52 51 51 51 50 51 50 50 49 49 49 48 46 44 43 41 39 36 35 35 35 35 35 33 32 32 32 30 29 28 28 27 27 27 27 28 29 30 31 33 35 37 38 38 37 38 39 40 39 39 40 42 42 41 40 38 38 40 41 42 41 41 42 42 42 41
43 43 42 42 41 42 42 43 44 44 45 46 46 47 48 48 49 50 50 50 49 50 50 51 52 52 52 51 50 48 46 44 42 41 40 38 37 36 35 35 35 34 34 33 33 32 31 30 29 28 28 28 28 28 30 31 32 33 34 35 35 35 35 35 36 37 38 38 39 41 42 43 42 40 38 39 41 42 43 43 43 43 43 42 40
43 42 41 41 41 41 42 42 42 43 44 44 45 45 46 46 47 47 47 47 48 48 49 50 51 51 51 49 47 45 43 42 40 39 38 36 35 34 33 34 34 34 33 33 33 33 33 32 30 30 29 29 30 31 32 33 34 34 34 34 34 34 34 34 35 36 38 40 42 43 43 43 41 39 39 41 42 43 44 45 45 44 43 42 40
42 41 41 41 41 41 41 41 41 42 42 43 43 43 44 44 44 45 45 46 46 47 47 48 49 49 48 47 45 43 42 40 38 36 35 34 33 32 32 32 33 33 34 34 34 34 34 32 31 31 31 31 32 33 33 33 34 34 33 33 34 34 34 35 36 38 40 43 44 44 44 42 40 40 41 42 44 45 45 46 46 45 44 42 39
41 41 41 41 40 40 40 40 41 42 42 42 42 42 42 43 43 44 44 44 45 45 46 46 46 46 45 44 43 41 39 37 35 33 31 31 31 31 31 31 32 33 34 34 35 34 33 33 32 32 33 34 34 34 34 34 34 33 33 33 34 34 35 36 38 40 42 44 44 44 43 42 41 41 43 44 45 47 47 46 46 45 44 43 39
Wind_Direction
283 284 285 286 287 288 289 289 290 290 291 291 292 293 293 293 293 293 294 294 295 296 297 298 299 300 300 302 303 305 306 307 308 307 306 306 306 307 308 309 309 310 313 314 314 314 313 313 313 313 314 315 316 316 315 315 316 318 319 319 319 319 320 321 322 323 321 317 312 309 308 306 302 298 296 296 297 296 294 294 292 289 284 278 270
284 284 285 286 287 287 288 288 289 289 290 291 291 291 291 291 291 292 292 293 294 295 296 297 298 299 300 301 303 304 305 305 306 305 305 305 306 307 308 308 309 311 313 313 313 313 311 311 312 313 314 315 315 315 315 315 316 317 318 319 319 319 319 321 323 323 321 316 312 310 308 306 302 299 298 299 299 298 297 295 291 287 282 274 266
284 285 285 285 286 286 287 288 288 289 290 290 290 290 290 290 290 291 291 292 293 294 295 296 298 299 300 302 303 303 303 304 304 304 303 305 306 306 307 308 309 311 312 311 310 310 310 310 311 313 314 314 314 314 314 314 316 317 318 318 318 319 319 321 323 323 320 315 312 310 308 305 302 300 301 301 301 300 298 295 290 285 279 270 261
284 284 285 285 285 286 287 288 289 289 289 289 289 289 289 289 289 290 291 292 293 294 295 296 298 299 300 301 301 301 302 302 303 302 301 303 306 306 306 307 309 310 310 308 308 309 310 310 311 313 313 314 314 314 314 315 316 317 318 317 318 318 320 322 323 322 318 315 313 310 308 305 302 303 305 305 303 301 298 294 290 285 277 267 256
283 284 284 285 285 286 287 288 289 289 289 288 288 288 288 288 289 290 291 292 293 294 295 297 298 299 300 300 300 300 301 301 301 301 300 301 305 306 305 306 308 308 309 308 308 309 310 310 311 312 313 313 314 314 314 315 316 317 317 316 317 319 321 323 322 320 317 314 312 310 307 304 304 307 309 309 306 302 299 294 290 284 276 265 256
283 284 284 284 285 286 287 288 288 288 288 288 287 287 288 288 289 290 291 292 293 294 295 296 297 298 299 300 300 299 300 301 300 300 300 301 304 304 304 305 307 308 309 309 309 310 310 311 311 312 313 313 313 313 314 315 316 316 315 316 317 319 322 323 322 320 316 313 312 309 306 305 308 311 312 312 310 305 301 296 292 285 275 265 260
284 284 284 284 285 286 287 287 287 288 287 287 287 287 288 288 289 290 291 292 293 294 294 295 297 298 298 299 299 299 299 300 300 300 301 302 303 303 303 305 307 307 308 309 309 310 310 311 312 312 312 312 313 313 313 315 316 315 314 315 317 320 323 324 323 320 316 313 312 309 307 308 310 311 311 312 312 310 307 301 295 286 276 269 268
284 283 283 284 285 285 286 286 287 287 286 286 287 287 288 288 289 290 291 292 292 293 294 295 296 297 298 298 298 298 298 299 300 300 301 302 302 302 303 305 306 306 307 309 309 309 310 311 312 312 311 312 313 312 313 315 315 314 313 315 317 321 324 325 323 319 317 314 311 308 307 307 306 307 310 311 311 312 310 306 300 291 283 277 275
283 283 283 283 284 285 286 286 286 285 285 286 286 287 287 288 289 290 291 291 292 293 294 295 296 297 297 297 297 298 298 298 299 300 301 301 301 301 303 304 305 306 307 309 309 309 310 311 311 311 311 311 312 311 312 314 314 312 312 314 318 323 326 325 322 319 318 314 309 305 302 300 299 302 308 311 312 312 310 308 304 297 290 284 279
281 282 282 283 284 285 285 285 285 285 285 286 286 287 287 288 289 290 291 291 292 293 294 295 296 296 297 297 297 297 298 298 299 300 300 301 301 302 303 304 305 306 307 308 308 308 309 310 310 310 310 310 310 310 311 312 312 311 311 314 319 325 327 325 322 320 319 314 309 306 301 295 293 295 299 304 309 312 310 309 308 303 296 290 282
281 281 282 283 284 284 284 284 284 285 286 286 286 286 287 288 288 289 290 291 292 293 294 295 295 296 296 297 297 297 298 299 299 300 300 301 302 303 304 304 305 306 307 307 308 308 308 309 309 309 309 309 309 309 309 309 309 310 310 314 321 327 328 325 323 321 318 315 314 313 309 301 294 292 292 294 298 303 307 306 305 302 297 292 286
280 281 282 283 283 283 284 284 285 285 285 286 286 286 286 287 288 289 290 291 292 293 294 294 295 296 296 297 297 298 298 299 300 300 301 302 303 304 304 305 305 306 306 307 307 307 308 308 308 309 309 308 307 307 306 305 306 308 310 316 323 328 328 325 325 322 318 317 318 317 314 308 301 295 292 291 290 293 297 298 298 295 293 291 289
280 280 281 282 282 283 283 284 284 284 285 285 285 286 287 288 289 289 290 291 292 292 293 294 295 296 296 297 297 298 299 300 300 301 302 303 304 305 305 305 305 306 306 307 307 307 307 307 308 308 307 306 306 304 301 300 303 307 312 319 325 329 326 324 326 322 318 317 317 316 312 309 303 298 294 291 289 288 288 289 289 288 287 286 286
279 280 280 281 282 282 283 283 283 284 284 285 285 286 287 288 288 289 290 291 291 292 293 294 295 296 296 297 298 299 300 300 301 302 303 303 304 305 305 305 306 306 306 306 306 306 307 306 307 307 306 305 303 300 295 295 301 307 315 322 327 328 324 323 326 323 317 315 315 314 311 310 307 302 295 290 287 286 285 283 282 282 281 280 280
278 279 280 280 281 282 282 282 283 283 284 284 285 286 287 287 288 288 289 290 291 292 293 294 295 296 296 297 298 299 299 299 300 302 303 304 305 306 306 306 307 306 305 304 305 306 306 305 307 306 304 303 299 294 291 292 299 308 318 325 327 325 321 322 326 325 319 315 314 312 312 313 313 310 305 296 288 284 283 282 280 279 278 277 275
278 278 279 280 281 281 281 282 282 283 283 284 285 285 286 286 287 288 289 290 291 292 293 294 295 296 297 298 298 298 298 299 301 303 305 306 307 308 307 307 306 305 304 304 304 305 305 306 307 305 303 300 294 289 288 291 300 310 320 325 325 321 319 320 325 327 321 315 313 313 315 314 313 312 310 307 298 288 282 280 280 278 277 276 274
277 278 279 280 280 281 281 281 282 282 283 284 284 285 286 286 287 288 289 290 291 292 293 294 295 297 297 297 297 298 299 301 303 305 306 307 308 308 307 306 306 304 304 304 305 306 306 307 306 303 300 294 288 285 286 291 301 312 320 324 322 317 315 317 324 326 319 315 314 315 317 316 313 308 306 305 304 298 289 282 278 277 276 274 273
277 278 279 279 280 280 280 281 281 282 283 284 284 285 285 286 288 288 289 290 291 292 294 295 296 296 296 296 297 298 300 302 304 305 306 307 308 308 307 307 306 305 305 306 306 306 307 307 305 302 295 286 282 282 284 290 301 311 318 322 319 312 310 315 322 324 318 317 317 317 318 318 316 312 308 303 301 300 296 288 280 276 273 272 270
277 278 278 279 279 279 280 280 281 282 282 283 284 284 285 287 288 288 289 290 292 293 295 295 295 295 294 295 296 298 301 302 302 303 304 306 307 308 307 308 307 306 307 308 308 308 307 306 304 300 289 280 278 279 284 290 300 310 315 318 316 309 306 313 320 321 319 320 321 320 319 319 321 325 325 319 311 303 299 295 287 278 272 270 267
276 277 278 278 278 279 279 280 280 281 282 283 283 284 285 286 287 288 289 291 292 294 294 294 294 293 294 294 296 298 299 299 301 302 304 305 307 308 309 309 309 310 311 311 311 310 308 306 304 297 284 280 279 278 284 290 298 308 312 312 313 307 304 311 317 319 320 320 321 320 318 316 319 324 328 328 324 314 306 302 295 285 274 268 265
276 277 277 278 278 279 279 279 280 281 282 283 284 284 285 286 287 288 290 291 292 292 292 292 292 292 293 294 296 298 298 298 300 302 304 306 307 308 309 309 311 314 314 313 312 311 309 306 303 292 282 283 280 278 284 290 296 306 310 308 309 305 302 308 313 318 321 320 318 317 316 315 316 317 319 323 325 320 311 306 302 293 280 268 261
275 276 276 276 277 277 278 279 281 282 282 283 283 284 285 286 288 289 289 290 289 289 290 289 290 290 292 294 296 297 297 298 300 301 304 305 306 307 308 310 313 315 316 314 312 311 309 306 301 290 287 291 286 283 285 289 294 303 308 309 305 299 298 304 311 319 324 322 315 313 315 317 318 318 317 320 323 321 313 306 303 298 287 272 260
274 274 274 275 276 277 278 280 280 281 281 282 283 284 286 287 288 288 288 287 287 288 287 287 288 290 292 293 295 296 296 297 298 301 303 304 305 306 307 310 313 315 316 315 312 310 307 305 303 297 299 300 296 292 288 289 293 300 306 308 300 290 293 302 314 322 324 320 313 307 310 316 321 319 316 318 321 322 316 307 302 298 290 278 265
272 273 274 274 276 277 278 280 280 280 281 282 283 285 286 287 287 286 286 286 286 286 285 285 287 289 291 292 293 294 293 294 296 299 301 303 304 305 307 309 312 314 316 315 311 309 309 310 309 305 304 302 299 294 290 290 293 297 303 303 292 282 289 305 318 321 317 315 312 308 308 313 319 318 314 314 319 323 320 309 302 298 290 280 270
273 275 276 277 278 278 279 281 282 283 284 284 285 286 286 286 285 286 285 285 284 284 284 285 287 288 289 290 290 291 291 292 294 297 300 302 304 305 307 309 311 313 315 313 311 311 313 314 310 305 301 298 295 291 289 289 291 295 299 297 286 278 289 307 316 315 312 313 313 313 312 313 315 315 312 312 317 324 325 315 303 298 292 283 275
271 274 276 280 281 281 281 283 286 288 288 288 288 288 288 288 288 286 283 282 283 283 284 285 285 286 286 285 286 287 289 290 292 296 299 301 303 304 306 308 310 312 313 310 308 311 314 311 306 302 299 298 297 293 289 288 290 294 297 293 280 274 287 303 310 309 311 313 313 315 315 313 311 312 311 311 314 321 328 322 307 299 295 290 283
268 269 271 275 277 278 280 282 285 287 289 288 288 288 289 290 290 287 283 282 283 283 284 285 284 283 283 281 282 284 286 289 292 294 297 299 300 302 304 306 308 309 309 307 306 309 310 306 302 299 298 300 301 299 295 290 289 291 293 288 273 269 283 299 306 306 308 310 311 314 314 312 310 310 311 311 312 317 325 325 312 300 297 295 291
266 267 269 270 270 273 276 279 281 283 286 286 287 289 288 287 287 285 283 284 282 282 283 283 282 283 282 280 279 281 283 286 289 291 293 295 297 299 302 303 304 305 305 304 303 305 306 303 300 298 298 300 300 301 299 292 287 286 288 282 269 267 282 296 305 305 305 306 308 311 312 310 307 308 310 312 312 314 321 323 314 301 295 292 289
264 266 268 269 270 273 275 276 277 279 283 284 287 289 287 284 282 280 281 283 280 281 282 281 283 285 283 280 278 279 281 283 285 288 292 293 294 297 298 298 299 301 302 302 301 302 304 301 298 297 299 300 301 303 301 295 287 283 282 275 265 269 282 294 302 304 305 303 304 307 307 307 305 305 309 311 310 313 319 322 317 306 297 294 291
264 265 267 269 271 272 274 273 273 275 276 279 284 285 285 283 278 275 276 278 279 281 283 283 285 285 282 280 278 279 281 283 284 287 292 294 294 295 296 296 297 299 300 301 299 300 302 299 296 298 301 301 303 304 302 297 289 282 277 266 260 269 282 292 297 301 305 303 301 303 305 304 302 302 307 308 309 312 319 322 321 314 306 302 301
265 266 267 268 270 271 272 271 271 270 268 270 276 278 280 280 275 273 272 274 279 284 284 285 286 283 280 279 278 279 281 282 282 286 292 294 294 295 295 295 295 297 298 298 298 298 298 295 294 297 300 300 301 302 300 297 289 279 269 258 258 269 279 288 294 299 303 300 298 301 303 300 297 301 305 306 308 313 319 323 323 320 315 310 307
265 266 267 268 269 270 270 269 268 267 265 266 269 270 270 272 274 275 276 277 280 283 284 285 284 278 276 277 276 277 278 280 282 287 291 293 293 294 294 293 293 294 295 296 296 297 296 292 291 293 297 299 300 300 300 298 289 273 258 253 258 268 278 287 293 298 299 295 296 300 300 295 296 301 305 306 309 314 319 322 324 322 320 316 313
266 266 267 268 268 268 268 268 266 264 263 264 264 262 262 266 270 271 275 278 278 280 281 281 277 271 273 276 277 279 281 284 287 290 291 291 292 293 292 292 292 293 294 295 295 295 293 291 289 290 295 299 298 298 299 298 287 266 253 253 260 270 280 287 292 296 296 293 296 300 297 293 295 299 301 304 309 314 318 321 322 321 320 319 318
266 266 266 267 267 268 267 266 264 261 259 260 258 257 259 263 268 270 274 277 277 276 274 272 268 267 271 275 278 282 285 288 290 291 291 292 293 293 292 292 292 293 293 293 293 293 291 290 289 291 295 297 296 296 298 296 282 260 252 256 264 274 281 286 290 294 294 291 292 295 293 290 294 297 298 303 309 314 316 318 318 318 317 316 317
266 266 265 266 266 266 265 264 262 257 255 257 256 257 262 264 268 272 273 272 272 270 266 263 263 266 271 275 279 283 285 287 288 289 290 291 292 292 291 290 289 288 289 289 290 290 289 288 289 292 294 295 294 295 297 291 272 256 255 260 268 276 281 284 289 293 291 287 285 287 289 291 294 295 296 302 309 311 312 313 313 312 311 311 313
264 264 264 265 264 263 262 261 259 255 254 255 255 255 259 261 263 265 264 263 265 264 263 264 265 267 272 277 281 283 284 285 286 286 288 289 290 290 291 290 288 288 287 288 289 289 288 287 288 291 293 293 294 295 293 282 264 259 263 268 274 279 281 284 288 290 287 283 281 283 289 293 294 292 294 301 307 307 306 307 309 310 308 305 306
263 263 263 262 261 260 259 258 256 255 252 252 251 249 253 257 260 262 260 259 262 263 264 266 268 271 275 279 281 282 283 284 284 285 287 288 290 291 291 290 289 289 289 289 289 289 288 287 288 291 292 292 291 288 283 275 267 267 272 276 278 279 279 283 286 285 282 279 278 283 290 292 290 289 291 299 305 305 302 304 305 307 306 302 299
263 263 262 260 259 257 256 256 255 253 252 249 248 247 250 256 259 261 261 260 261 263 265 269 272 275 277 280 281 282 282 282 284 285 287 289 291 292 292 292 292 291 291 290 290 289 287 286 287 289 290 289 287 282 278 277 274 274 275 275 275 276 280 284 284 279 274 274 277 285 289 288 285 284 288 296 303 304 301 300 300 301 302 301 298
262 262 260 259 257 256 254 254 253 252 252 251 250 250 251 254 257 259 260 260 262 264 267 271 274 276 278 280 282 282 281 283 284 286 287 288 290 292 292 293 294 294 293 292 291 289 287 285 285 287 286 283 279 277 276 277 276 275 272 271 273 279 283 284 280 274 268 271 280 286 286 283 280 281 286 294 300 302 301 299 298 299 299 299 298
261 260 259 258 257 255 253 252 252 252 252 252 253 253 253 253 255 257 259 260 262 265 269 272 275 277 279 281 282 282 283 284 286 287 288 288 288 290 292 295 295 295 295 294 292 290 287 285 284 284 283 279 273 271 270 270 270 271 271 273 277 281 281 276 272 270 270 275 283 284 280 277 277 280 287 293 298 300 300 298 298 298 298 298 298
259 259 258 257 256 255 254 253 252 252 252 253 253 254 254 254 254 256 258 260 262 266 269 273 277 279 280 281 281 282 283 284 286 287 287 287 286 287 290 293 295 296 297 297 295 291 287 284 283 281 280 278 276 273 271 271 272 273 274 276 278 278 273 270 268 269 273 277 279 276 275 275 277 283 289 292 297 299 299 297 297 298 300 299 297
258 258 257 256 256 255 254 254 253 252 252 252 253 254 255 255 255 256 257 260 264 267 270 274 278 280 279 279 279 280 282 284 286 286 286 284 284 286 289 291 294 296 297 298 296 291 287 283 281 279 278 278 278 277 276 277 277 276 275 275 276 274 270 269 268 268 270 271 271 272 275 277 281 285 288 291 296 299 298 296 296 298 299 297 294
257 257 256 256 255 254 254 254 254 253 253 253 253 254 255 256 257 258 259 261 264 268 271 276 278 278 278 278 280 281 283 286 287 286 284 282 283 286 288 291 293 294 295 295 293 290 286 282 279 278 277 277 277 277 277 278 277 276 275 273 271 269 267 266 266 267 268 268 270 272 275 278 282 284 286 291 296 297 296 296 296 297 297 295 292
255 255 255 255 254 254 254 254 254 255 255 255 254 255 255 256 257 259 261 262 265 268 271 274 275 276 278 279 280 282 284 286 286 284 282 282 282 284 286 289 291 292 292 291 289 287 283 281 279 277 277 276 275 275 274 275 276 276 276 274 272 268 265 263 263 264 265 267 270 273 276 279 281 282 287 292 295 296 295 296 296 296 296 294 291
254 254 254 254 254 254 254 255 256 256 256 256 256 256 256 257 258 260 262 264 266 268 270 272 273 275 277 278 278 279 282 284 282 281 282 282 282 283 284 285 287 288 289 288 286 283 280 279 278 277 277 277 275 274 273 273 274 275 276 275 274 272 269 267 265 264 264 266 269 272 275 276 278 283 290 294 295 295 295 295 296 297 297 295 292
253 253 253 253 254 255 255 256 257 257 257 257 257 257 258 258 259 260 262 264 266 267 268 269 271 273 275 276 276 277 280 281 280 279 280 282 281 282 283 284 285 286 286 285 282 279 278 277 278 278 278 277 275 273 273 274 276 278 279 278 276 275 274 273 269 265 265 267 269 272 273 275 280 288 293 293 294 295 295 295 297 300 301 298 295
253 253 253 254 255 255 256 257 257 258 258 258 259 259 259 260 261 262 263 264 266 267 267 267 268 270 272 273 275 277 279 280 279 279 280 280 279 280 282 284 284 284 283 281 278 277 277 278 279 279 277 275 272 272 275 278 281 282 282 280 279 277 277 274 270 265 264 267 269 272 274 278 286 292 292 292 293 296 296 294 296 301 303 301 297
253 254 254 255 255 256 257 257 257 258 259 259 260 260 261 262 263 263 264 265 266 267 267 267 268 269 271 273 274 276 278 279 279 280 280 279 278 278 280 282 282 281 281 279 277 276 278 280 280 278 276 273 272 274 278 281 283 283 282 280 278 278 276 273 270 267 266 268 270 272 275 281 288 291 290 290 292 295 296 293 294 299 302 302 299
253 255 255 256 256 256 257 257 258 259 259 260 261 262 263 264 265 265 266 267 267 267 267 268 268 270 271 272 273 275 277 278 278 279 279 278 277 277 277 277 278 278 278 276 275 276 278 280 279 276 274 274 276 279 281 282 283 282 280 278 277 276 274 271 270 269 269 270 271 273 277 283 287 288 287 289 291 294 296 293 292 297 301 301 299
254 255 255 255 256 256 257 259 260 260 261 261 262 263 264 265 265 266 266 266 267 267 267 267 268 269 271 272 272 273 275 276 277 277 277 276 275 274 274 274 275 275 275 273 273 275 277 277 276 274 274 276 279 281 282 283 282 280 278 276 275 273 271 269 269 269 269 270 272 275 279 283 285 285 285 287 290 293 295 292 291 295 299 299 297
253 254 255 256 257 259 260 261 262 262 262 262 262 263 264 265 265 266 266 266 266 266 267 267 268 269 270 271 271 271 272 273 275 277 276 275 274 273 272 273 274 274 273 272 272 273 275 275 273 273 274 277 279 281 281 280 279 277 275 273 272 270 268 267 267 267 268 270 273 276 279 282 282 282 283 285 289 293 293 290 290 293 298 298 296
Height
10894 10893 10892 10888 10887 10887 10886 10885 10885 10885 10886 10885 10884 10883 10881 10879 10876 10874 10872 10871 10869 10868 10866 10865 10864 10863 10862 10861 10859 10857 10855 10853 10852 10850 10849 10847 10845 10843 10841 10839 10837 10835 10834 10832 10830 10828 10825 10823 10821 10818 10815 10812 10809 10807 10805 10802 10800 10798 10795 10793 10791 10789 10787 10784 10782 10780 10777 10775 10774 10773 10771 10769 10768 10766 10765 10763 10762 10761 10760 10759 10759 10758 10757 10757 10757
10890 10890 10889 10886 10884 10883 10882 10882 10882 10881 10881 10881 10880 10878 10876 10874 10872 10870 10869 10867 10866 10865 10863 10861 10860 10859 10857 10856 10855 10853 10851 10850 10848 10847 10845 10843 10841 10839 10837 10835 10833 10832 10831 10829 10827 10824 10822 10819 10817 10814 10811 10808 10805 10803 10801 10799 10797 10795 10792 10790 10788 10786 10784 10782 10779 10777 10775 10773 10772 10770 10769 10767 10766 10764 10763 10762 10760 10759 10758 10758 10757 10756 10756 10756 10756
10886 10886 10885 10883 10881 10879 10878 10878 10878 10878 10877 10877 10875 10873 10871 10869 10868 10866 10865 10864 10862 10861 10860 10858 10856 10854 10853 10851 10850 10848 10847 10846 10845 10843 10841 10839 10838 10835 10833 10831 10830 10829 10828 10826 10824 10821 10818 10816 10814 10811 10807 10804 10802 10799 10797 10795 10794 10791 10789 10787 10785 10784 10782 10779 10777 10775 10773 10771 10770 10768 10767 10765 10764 10762 10761 10760 10759 10758 10757 10756 10755 10755 10755 10754 10755
10882 10881 10881 10879 10877 10875 10874 10874 10874 10873 10873 10872 10870 10868 10866 10864 10863 10862 10861 10860 10859 10857 10855 10854 10852 10850 10848 10846 10845 10843 10842 10842 10841 10839 10838 10836 10834 10831 10829 10827 10826 10825 10824 10823 10820 10817 10814 10812 10810 10807 10804 10801 10798 10795 10793 10792 10790 10788 10786 10784 10783 10781 10779 10777 10775 10773 10771 10769 10768 10766 10764 10763 10762 10760 10759 10758 10757 10756 10755 10754 10754 10753 10753 10753 10754
10878 10877 10876 10874 10872 10871 10871 10871 10870 10869 10868 10867 10865 10863 10860 10859 10858 10857 10857 10856 10855 10853 10851 10849 10848 10846 10845 10842 10840 10839 10838 10837 10837 10835 10833 10831 10829 10827 10825 10823 10822 10821 10821 10819 10817 10813 10810 10808 10806 10803 10800 10797 10794 10792 10790 10789 10787 10785 10783 10781 10780 10779 10777 10775 10773 10771 10769 10768 10766 10764 10762 10761 10760 10759 10758 10757 10756 10755 10754 10753 10753 10752 10752 10752 10753
10873 10872 10871 10869 10868 10867 10867 10867 10866 10864 10863 10862 10860 10858 10855 10854 10853 10853 10853 10852 10851 10849 10847 10845 10844 10842 10840 10838 10836 10834 10833 10833 10832 10831 10829 10827 10825 10823 10821 10819 10818 10817 10817 10815 10812 10809 10807 10805 10802 10799 10797 10793 10790 10788 10787 10786 10784 10782 10780 10779 10777 10776 10774 10773 10771 10769 10767 10766 10764 10762 10761 10759 10758 10757 10757 10756 10755 10754 10753 10752 10752 10751 10752 10752 10752
10867 10866 10865 10864 10863 10862 10863 10862 10861 10860 10858 10856 10855 10853 10851 10849 10848 10848 10848 10847 10846 10845 10843 10841 10840 10838 10836 10834 10832 10829 10828 10828 10827 10826 10824 10822 10820 10818 10816 10815 10814 10812 10812 10811 10808 10805 10803 10801 10799 10796 10793 10789 10787 10785 10784 10783 10782 10779 10777 10776 10775 10774 10772 10770 10769 10767 10765 10764 10762 10760 10759 10758 10757 10756 10755 10755 10754 10753 10752 10751 10751 10751 10751 10751 10751
10861 10860 10859 10858 10858 10857 10857 10857 10856 10855 10853 10851 10850 10848 10846 10845 10844 10843 10842 10842 10842 10840 10839 10838 10836 10834 10832 10829 10827 10825 10823 10823 10822 10821 10819 10817 10815 10814 10811 10810 10809 10808 10808 10807 10804 10801 10799 10798 10796 10793 10790 10786 10783 10782 10781 10780 10779 10777 10775 10774 10773 10771 10770 10768 10767 10765 10764 10762 10760 10759 10757 10756 10756 10755 10754 10754 10753 10752 10751 10751 10751 10751 10750 10750 10751
10854 10854 10853 10852 10853 10853 10852 10852 10851 10849 10847 10846 10845 10844 10842 10841 10839 10838 10837 10837 10836 10835 10834 10833 10831 10830 10828 10825 10822 10820 10819 10818 10817 10815 10814 10813 10811 10809 10807 10805 10804 10803 10803 10803 10801 10797 10795 10794 10793 10790 10787 10783 10780 10778 10778 10778 10777 10775 10773 10772 10771 10769 10768 10766 10765 10763 10762 10760 10758 10757 10756 10755 10754 10754 10753 10753 10752 10751 10751 10750 10750 10750 10750 10749 10749
10848 10847 10847 10847 10848 10847 10847 10846 10845 10843 10842 10842 10841 10839 10838 10836 10835 10834 10832 10831 10831 10830 10829 10828 10827 10825 10823 10821 10818 10815 10814 10813 10812 10810 10809 10808 10807 10805 10803 10801 10799 10798 10798 10799 10797 10794 10791 10790 10789 10787 10784 10780 10777 10775 10774 10775 10775 10774 10771 10770 10768 10767 10766 10764 10763 10762 10760 10758 10757 10755 10755 10754 10753 10753 10752 10751 10751 10751 10750 10750 10749 10749 10749 10749 10749
10841 10841 10841 10842 10842 10842 10841 10840 10839 10838 10837 10837 10836 10834 10833 10832 10831 10829 10828 10827 10825 10825 10824 10823 10821 10820 10818 10817 10813 10811 10809 10808 10807 10806 10805 10803 10802 10801 10799 10796 10794 10793 10794 10795 10793 10790 10788 10786 10785 10783 10780 10777 10774 10772 10771 10771 10772 10772 10770 10768 10767 10765 10764 10763 10761 10760 10758 10756 10755 10754 10753 10752 10752 10751 10751 10750 10750 10750 10749 10749 10749 10748 10748 10748 10748
10835 10835 10836 10836 10836 10835 10835 10834 10833 10833 10832 10831 10830 10829 10828 10827 10826 10825 10824 10822 10820 10819 10818 10817 10816 10815 10813 10811 10809 10806 10804 10803 10802 10801 10800 10799 10798 10797 10795 10792 10790 10789 10789 10789 10789 10787 10784 10782 10781 10780 10777 10774 10771 10769 10767 10768 10770 10770 10768 10766 10765 10763 10762 10761 10760 10758 10756 10755 10754 10752 10751 10751 10750 10749 10749 10749 10748 10748 10748 10748 10748 10748 10748 10747 10747
10829 10829 10830 10829 10829 10829 10829 10828 10827 10827 10826 10825 10825 10824 10823 10822 10821 10820 10819 10817 10816 10813 10812 10811 10811 10810 10808 10806 10804 10801 10799 10799 10798 10797 10795 10794 10794 10793 10791 10789 10787 10786 10784 10784 10784 10783 10780 10778 10777 10776 10774 10771 10768 10766 10764 10765 10767 10768 10766 10764 10763 10761 10760 10759 10758 10756 10755 10754 10752 10751 10750 10749 10748 10747 10747 10747 10746 10746 10746 10746 10746 10746 10746 10746 10746
10823 10823 10824 10824 10824 10823 10823 10822 10821 10821 10821 10820 10819 10819 10818 10817 10816 10815 10814 10813 10810 10808 10807 10806 10805 10804 10803 10802 10800 10798 10796 10794 10793 10792 10791 10790 10790 10789 10787 10785 10783 10782 10780 10779 10779 10779 10777 10775 10774 10773 10771 10768 10766 10763 10762 10762 10764 10765 10765 10762 10761 10760 10759 10757 10756 10755 10753 10752 10750 10749 10748 10747 10746 10745 10745 10744 10744 10744 10744 10744 10744 10745 10745 10745 10745
10818 10818 10818 10818 10818 10818 10817 10816 10816 10816 10815 10815 10814 10814 10813 10812 10811 10810 10809 10808 10805 10803 10802 10801 10800 10798 10798 10797 10795 10794 10792 10790 10789 10788 10787 10786 10785 10785 10783 10781 10779 10777 10775 10774 10775 10775 10773 10772 10770 10769 10767 10765 10764 10761 10759 10759 10761 10763 10763 10760 10759 10758 10757 10756 10754 10753 10752 10750 10749 10747 10746 10745 10744 10743 10743 10742 10742 10742 10742 10742 10742 10743 10743 10743 10743
10812 10813 10813 10813 10813 10812 10811 10810 10810 10811 10810 10810 10809 10809 10807 10806 10806 10805 10804 10802 10800 10799 10797 10796 10795 10794 10792 10792 10791 10790 10788 10786 10785 10784 10783 10782 10781 10780 10779 10777 10775 10773 10771 10770 10770 10771 10770 10768 10767 10766 10764 10763 10761 10760 10757 10756 10758 10760 10760 10759 10757 10756 10755 10754 10753 10751 10750 10749 10747 10746 10745 10744 10743 10742 10741 10740 10740 10740 10740 10740 10740 10740 10741 10741 10741
10806 10807 10807 10808 10807 10806 10805 10805 10805 10805 10805 10805 10804 10803 10802 10801 10800 10800 10798 10797 10795 10794 10793 10792 10791 10789 10788 10787 10786 10785 10784 10782 10781 10780 10779 10778 10777 10776 10774 10773 10771 10769 10767 10766 10766 10767 10766 10765 10765 10763 10761 10760 10760 10758 10756 10754 10755 10757 10758 10757 10755 10754 10753 10753 10751 10750 10749 10747 10746 10745 10744 10742 10741 10740 10739 10738 10738 10737 10737 10737 10738 10738 10738 10739 10739
10801 10801 10802 10802 10801 10800 10799 10799 10800 10800 10800 10800 10799 10797 10796 10796 10795 10794 10793 10792 10791 10790 10789 10788 10786 10785 10783 10782 10781 10780 10779 10778 10778 10776 10775 10774 10773 10772 10770 10769 10768 10765 10764 10763 10762 10762 10762 10762 10762 10760 10759 10758 10758 10757 10754 10752 10753 10755 10756 10756 10754 10752 10751 10751 10750 10748 10747 10746 10745 10744 10742 10741 10740 10739 10738 10737 10736 10735 10735 10735 10735 10735 10736 10736 10737
10796 10796 10796 10795 10794 10794 10794 10794 10794 10795 10795 10794 10793 10791 10791 10791 10790 10789 10788 10787 10787 10786 10785 10783 10781 10780 10778 10777 10777 10776 10775 10774 10773 10772 10771 10770 10769 10768 10767 10765 10764 10762 10761 10760 10759 10759 10759 10759 10759 10758 10756 10756 10756 10755 10752 10750 10750 10752 10753 10753 10752 10750 10749 10749 10748 10747 10746 10745 10744 10742 10741 10740 10738 10737 10737 10736 10735 10734 10733 10733 10733 10733 10733 10734 10734
10791 10790 10790 10788 10787 10787 10787 10788 10788 10789 10789 10788 10787 10786 10786 10786 10786 10784 10783 10783 10783 10782 10780 10778 10776 10775 10774 10773 10773 10772 10771 10770 10769 10769 10767 10766 10765 10765 10764 10762 10761 10760 10759 10757 10756 10755 10756 10756 10756 10756 10755 10754 10754 10753 10750 10747 10748 10750 10751 10750 10750 10748 10747 10747 10746 10745 10744 10743 10742 10741 10740 10739 10737 10736 10735 10735 10734 10732 10731 10731 10730 10730 10730 10731 10732
10785 10785 10783 10781 10780 10780 10780 10781 10782 10784 10783 10782 10781 10781 10781 10781 10781 10780 10779 10778 10777 10776 10775 10773 10772 10771 10770 10769 10769 10768 10766 10766 10766 10764 10764 10763 10762 10762 10761 10759 10758 10757 10757 10755 10754 10753 10753 10753 10754 10754 10753 10753 10752 10750 10748 10745 10745 10747 10748 10748 10748 10747 10746 10745 10744 10744 10743 10742 10741 10740 10739 10738 10737 10735 10734 10733 10732 10731 10730 10729 10728 10728 10728 10728 10729
10779 10777 10775 10773 10773 10773 10774 10775 10777 10778 10777 10776 10775 10775 10775 10776 10777 10775 10774 10773 10772 10771 10770 10769 10767 10767 10766 10765 10764 10763 10762 10762 10762 10761 10760 10759 10759 10758 10757 10756 10755 10755 10754 10753 10752 10751 10751 10751 10752 10752 10751 10750 10749 10748 10746 10743 10743 10745 10746 10745 10746 10745 10744 10743 10742 10741 10741 10740 10739 10739 10738 10737 10735 10734 10733 10732 10730 10729 10728 10727 10726 10726 10726 10726 10726
10769 10767 10766 10766 10765 10766 10769 10771 10772 10772 10771 10770 10769 10769 10770 10771 10771 10769 10767 10767 10766 10766 10765 10764 10763 10762 10762 10761 10760 10759 10758 10758 10758 10757 10756 10756 10755 10755 10754 10753 10753 10752 10751 10750 10750 10750 10750 10750 10750 10750 10749 10748 10747 10746 10744 10741 10742 10743 10743 10743 10743 10743 10742 10741 10740 10739 10739 10738 10737 10737 10736 10735 10734 10732 10731 10730 10729 10728 10726 10725 10724 10723 10723 10723 10723
10757 10758 10758 10759 10760 10763 10765 10766 10767 10766 10765 10764 10763 10764 10765 10765 10764 10762 10761 10761 10761 10760 10759 10759 10759 10758 10757 10756 10755 10754 10754 10754 10753 10753 10753 10752 10752 10752 10751 10751 10750 10749 10748 10748 10747 10747 10747 10747 10747 10746 10746 10745 10745 10744 10741 10740 10740 10741 10741 10741 10741 10741 10740 10739 10738 10736 10736 10735 10735 10735 10735 10733 10732 10731 10729 10729 10728 10726 10725 10723 10722 10721 10721 10720 10721
10751 10753 10753 10754 10756 10759 10761 10761 10762 10761 10759 10758 10758 10759 10759 10759 10758 10757 10756 10756 10756 10755 10754 10755 10755 10754 10753 10752 10750 10750 10750 10750 10750 10749 10749 10749 10749 10749 10748 10748 10747 10747 10745 10745 10744 10744 10743 10743 10742 10742 10742 10743 10743 10742 10739 10737 10737 10738 10738 10738 10738 10738 10738 10737 10735 10734 10733 10733 10733 10733 10733 10731 10730 10729 10728 10727 10726 10725 10723 10722 10720 10719 10718 10718 10718
10751 10752 10751 10751 10752 10753 10755 10757 10757 10756 10754 10753 10753 10753 10753 10753 10753 10753 10751 10751 10751 10751 10750 10751 10751 10750 10749 10748 10747 10746 10746 10746 10746 10746 10746 10746 10746 10745 10745 10745 10744 10744 10743 10742 10742 10741 10740 10740 10740 10740 10740 10740 10740 10739 10737 10735 10734 10735 10736 10736 10736 10736 10735 10734 10733 10732 10732 10731 10731 10731 10730 10729 10727 10726 10726 10725 10724 10723 10721 10720 10718 10717 10717 10716 10716
10749 10749 10748 10747 10747 10748 10750 10753 10753 10751 10750 10749 10748 10748 10749 10749 10749 10748 10747 10748 10747 10746 10746 10746 10746 10746 10745 10745 10744 10743 10743 10743 10743 10743 10743 10743 10743 10743 10742 10742 10741 10741 10740 10740 10740 10739 10739 10738 10738 10738 10738 10738 10737 10737 10734 10732 10732 10733 10733 10733 10733 10733 10732 10731 10731 10730 10730 10730 10729 10728 10727 10726 10725 10724 10723 10723 10722 10721 10720 10718 10716 10715 10715 10714 10714
10743 10743 10743 10742 10742 10743 10746 10748 10747 10746 10746 10745 10743 10743 10744 10744 10743 10743 10743 10745 10745 10743 10742 10742 10742 10742 10742 10741 10740 10740 10740 10740 10740 10740 10741 10741 10740 10740 10739 10739 10738 10738 10738 10738 10738 10737 10736 10736 10736 10736 10735 10735 10734 10733 10731 10729 10729 10730 10731 10731 10731 10730 10729 10728 10728 10729 10729 10729 10728 10726 10725 10724 10723 10722 10721 10720 10720 10719 10718 10716 10715 10714 10713 10712 10712
10737 10739 10738 10737 10739 10740 10742 10743 10742 10741 10742 10740 10740 10739 10737 10738 10738 10739 10740 10741 10741 10740 10739 10739 10738 10738 10738 10738 10737 10736 10737 10737 10737 10737 10738 10738 10738 10737 10736 10736 10736 10736 10736 10736 10735 10734 10734 10733 10733 10733 10733 10732 10731 10730 10728 10727 10727 10727 10728 10728 10728 10727 10726 10725 10726 10726 10727 10727 10725 10723 10722 10721 10720 10719 10718 10718 10717 10717 10715 10714 10712 10711 10711 10710 10709
10735 10735 10734 10735 10736 10737 10736 10737 10736 10736 10737 10736 10736 10735 10732 10733 10734 10735 10737 10737 10736 10736 10736 10735 10735 10734 10735 10735 10733 10733 10733 10733 10734 10734 10734 10734 10734 10734 10734 10733 10732 10732 10732 10732 10732 10731 10731 10731 10731 10731 10730 10729 10728 10727 10726 10725 10724 10725 10725 10725 10725 10724 10723 10723 10724 10724 10724 10724 10722 10720 10719 10719 10718 10717 10716 10716 10715 10714 10713 10711 10710 10709 10708 10708 10707
10731 10730 10730 10731 10732 10732 10732 10731 10731 10731 10732 10732 10733 10731 10730 10730 10730 10731 10733 10733 10732 10732 10732 10732 10731 10731 10731 10731 10730 10730 10730 10730 10730 10730 10731 10731 10731 10731 10730 10730 10729 10728 10729 10729 10729 10728 10728 10728 10728 10728 10727 10726 10725 10724 10723 10722 10722 10722 10723 10723 10721 10720 10720 10720 10722 10722 10722 10720 10718 10717 10717 10716 10715 10715 10714 10713 10712 10711 10710 10709 10707 10706 10706 10706 10705
10725 10724 10725 10726 10727 10728 10727 10725 10725 10725 10726 10728 10729 10728 10727 10727 10727 10728 10729 10729 10728 10728 10728 10728 10728 10727 10727 10727 10726 10726 10726 10726 10727 10727 10727 10727 10727 10727 10727 10726 10726 10725 10725 10725 10725 10725 10725 10725 10725 10725 10724 10723 10722 10721 10720 10720 10720 10719 10720 10719 10717 10717 10718 10719 10719 10719 10718 10716 10715 10715 10715 10714 10713 10712 10712 10711 10709 10708 10708 10706 10705 10704 10704 10703 10703
10718 10720 10720 10721 10722 10722 10722 10721 10720 10720 10720 10722 10724 10723 10723 10724 10724 10725 10726 10726 10725 10725 10724 10724 10724 10724 10724 10723 10722 10722 10722 10722 10723 10724 10723 10723 10723 10723 10723 10723 10722 10721 10721 10721 10721 10721 10720 10721 10722 10721 10720 10719 10718 10718 10717 10717 10717 10717 10717 10715 10714 10715 10716 10717 10716 10715 10714 10713 10713 10713 10712 10712 10711 10710 10709 10708 10707 10706 10705 10704 10703 10702 10701 10701 10700
10712 10714 10715 10715 10716 10716 10716 10716 10715 10715 10716 10717 10718 10718 10719 10720 10720 10721 10722 10722 10722 10721 10720 10720 10720 10720 10721 10721 10720 10718 10718 10718 10718 10718 10718 10718 10718 10718 10718 10718 10717 10716 10716 10716 10716 10716 10716 10717 10717 10717 10716 10716 10715 10714 10714 10714 10715 10715 10713 10711 10711 10713 10714 10714 10712 10711 10711 10711 10711 10711 10710 10709 10708 10708 10706 10706 10705 10704 10703 10702 10701 10700 10700 10699 10698
10705 10707 10708 10710 10711 10710 10710 10710 10710 10710 10711 10712 10712 10712 10714 10716 10716 10717 10716 10716 10717 10717 10716 10717 10717 10718 10718 10718 10717 10716 10715 10715 10715 10714 10713 10713 10713 10713 10714 10714 10713 10713 10713 10712 10713 10712 10712 10712 10713 10713 10713 10712 10711 10711 10711 10711 10711 10711 10709 10708 10710 10712 10712 10710 10708 10707 10707 10708 10708 10707 10707 10706 10705 10705 10704 10703 10702 10702 10701 10701 10700 10699 10698 10697 10696
10699 10700 10703 10705 10704 10704 10703 10704 10705 10705 10707 10707 10707 10708 10709 10710 10711 10712 10711 10711 10712 10712 10712 10713 10714 10715 10715 10715 10714 10713 10712 10711 10711 10711 10710 10710 10709 10709 10710 10711 10710 10710 10709 10709 10709 10709 10708 10708 10709 10709 10709 10708 10707 10707 10707 10707 10708 10707 10705 10705 10707 10709 10709 10706 10704 10704 10704 10705 10704 10704 10704 10703 10702 10701 10701 10700 10700 10700 10699 10699 10698 10697 10697 10695 10694
10692 10694 10698 10699 10698 10697 10697 10698 10699 10700 10701 10702 10702 10703 10704 10705 10706 10707 10707 10707 10707 10708 10708 10709 10710 10710 10710 10710 10710 10709 10708 10707 10707 10707 10707 10707 10706 10705 10706 10707 10707 10707 10706 10706 10706 10705 10705 10705 10705 10705 10704 10704 10704 10703 10704 10705 10705 10703 10701 10702 10704 10705 10705 10703 10701 10701 10701 10702 10701 10701 10701 10700 10699 10698 10698 10697 10697 10697 10696 10696 10696 10695 10694 10693 10692
10687 10689 10691 10692 10692 10691 10691 10692 10693 10695 10696 10696 10697 10698 10699 10700 10701 10701 10702 10702 10702 10703 10704 10705 10706 10706 10705 10705 10706 10705 10705 10704 10703 10702 10702 10702 10702 10701 10702 10702 10703 10703 10702 10702 10702 10702 10701 10701 10702 10701 10701 10700 10700 10700 10701 10702 10702 10700 10698 10698 10700 10701 10701 10699 10698 10698 10698 10699 10698 10698 10698 10697 10696 10695 10695 10695 10694 10694 10693 10693 10693 10692 10691 10690 10689
10681 10683 10684 10684 10685 10684 10685 10686 10687 10688 10690 10691 10692 10693 10694 10695 10696 10697 10696 10697 10697 10698 10699 10700 10700 10701 10701 10702 10702 10701 10701 10700 10699 10698 10698 10698 10698 10698 10697 10697 10698 10698 10698 10698 10698 10698 10698 10698 10699 10699 10698 10698 10697 10697 10697 10698 10698 10696 10695 10695 10696 10697 10697 10695 10695 10695 10695 10696 10695 10695 10694 10694 10693 10693 10692 10692 10692 10691 10691 10690 10689 10688 10688 10687 10686
10674 10676 10677 10678 10678 10678 10679 10680 10681 10683 10684 10686 10688 10689 10690 10691 10691 10691 10691 10692 10692 10694 10694 10695 10695 10696 10697 10697 10697 10697 10697 10696 10696 10695 10694 10694 10695 10695 10694 10694 10694 10694 10694 10695 10695 10695 10694 10695 10695 10696 10696 10696 10696 10695 10695 10696 10695 10693 10692 10692 10693 10693 10693 10692 10692 10692 10692 10692 10692 10692 10691 10690 10690 10690 10689 10690 10689 10688 10688 10687 10685 10684 10684 10683 10683
10667 10669 10670 10671 10672 10673 10673 10674 10675 10677 10679 10681 10683 10684 10686 10686 10686 10686 10686 10687 10687 10688 10689 10689 10689 10690 10691 10692 10692 10692 10692 10692 10692 10691 10690 10691 10691 10691 10691 10691 10691 10691 10691 10692 10692 10691 10691 10691 10692 10692 10692 10693 10693 10693 10693 10693 10693 10691 10689 10689 10690 10689 10689 10689 10689 10690 10690 10689 10689 10688 10688 10688 10687 10687 10687 10687 10686 10685 10684 10683 10681 10680 10680 10679 10678
10662 10663 10665 10666 10667 10668 10668 10669 10670 10672 10674 10676 10678 10680 10681 10681 10681 10681 10682 10682 10683 10683 10683 10683 10684 10685 10685 10686 10687 10687 10687 10687 10687 10687 10687 10687 10687 10687 10688 10687 10687 10688 10688 10688 10688 10688 10688 10689 10689 10689 10689 10689 10690 10690 10690 10690 10689 10688 10686 10686 10686 10685 10685 10685 10686 10686 10686 10686 10686 10685 10685 10684 10684 10684 10684 10683 10683 10682 10680 10678 10677 10677 10676 10675 10674
10656 10658 10660 10661 10662 10663 10664 10664 10665 10667 10669 10671 10673 10675 10676 10676 10676 10677 10678 10678 10678 10678 10678 10678 10679 10680 10680 10681 10682 10682 10683 10683 10683 10683 10683 10683 10683 10683 10684 10683 10683 10684 10685 10685 10685 10685 10685 10685 10686 10686 10686 10686 10686 10686 10686 10686 10685 10684 10683 10683 10682 10682 10681 10682 10682 10683 10683 10683 10683 10682 10681 10681 10681 10681 10681 10680 10679 10677 10676 10674 10673 10673 10672 10670 10669
10652 10653 10655 10656 10657 10658 10659 10659 10660 10662 10664 10667 10669 10670 10671 10671 10672 10673 10673 10674 10674 10674 10674 10674 10674 10675 10676 10676 10677 10678 10678 10679 10679 10679 10679 10680 10679 10680 10680 10680 10680 10681 10681 10681 10681 10681 10682 10682 10682 10683 10683 10683 10682 10683 10683 10683 10682 10682 10681 10680 10679 10678 10678 10678 10679 10679 10679 10679 10679 10679 10678 10678 10678 10678 10678 10677 10675 10673 10671 10670 10669 10668 10667 10666 10665
10647 10649 10650 10651 10652 10653 10655 10656 10657 10658 10660 10662 10664 10665 10666 10666 10667 10668 10669 10670 10670 10670 10670 10670 10669 10670 10671 10672 10673 10673 10674 10675 10676 10676 10676 10677 10676 10676 10677 10676 10677 10677 10678 10677 10677 10678 10678 10679 10679 10679 10679 10679 10678 10678 10679 10679 10679 10679 10678 10677 10675 10674 10674 10674 10674 10674 10675 10676 10676 10675 10675 10674 10674 10675 10674 10673 10670 10668 10667 10666 10665 10664 10662 10661 10660
10642 10644 10645 10647 10648 10649 10651 10653 10653 10654 10655 10657 10658 10660 10661 10661 10662 10663 10664 10665 10665 10666 10666 10665 10665 10665 10666 10667 10668 10669 10670 10671 10671 10672 10673 10673 10673 10673 10673 10672 10673 10673 10674 10674 10674 10674 10675 10675 10675 10675 10675 10675 10675 10675 10675 10675 10675 10675 10675 10674 10672 10670 10670 10670 10670 10670 10671 10672 10672 10671 10670 10670 10671 10671 10670 10668 10665 10663 10663 10662 10661 10659 10658 10656 10655
10637 10639 10641 10643 10644 10646 10648 10649 10650 10650 10651 10652 10653 10654 10655 10656 10657 10658 10659 10660 10661 10661 10661 10661 10661 10661 10662 10663 10664 10664 10664 10665 10666 10667 10668 10668 10669 10669 10668 10668 10668 10669 10671 10671 10670 10670 10671 10671 10671 10671 10671 10671 10672 10672 10672 10672 10672 10671 10671 10670 10668 10667 10667 10666 10666 10667 10667 10668 10668 10667 10666 10666 10667 10667 10665 10663 10660 10659 10659 10658 10657 10655 10654 10652 10651
10632 10635 10637 10639 10640 10642 10643 10644 10645 10646 10647 10647 10648 10649 10649 10650 10651 10652 10653 10654 10655 10656 10656 10656 10656 10656 10658 10659 10659 10659 10658 10659 10660 10662 10662 10663 10663 10664 10664 10664 10664 10665 10666 10667 10666 10666 10666 10667 10667 10667 10668 10668 10668 10669 10669 10668 10668 10667 10666 10665 10664 10663 10663 10663 10662 10663 10663 10663 10664 10664 10663 10663 10663 10662 10660 10658 10656 10655 10655 10654 10653 10651 10650 10649 10647
10629 10631 10633 10635 10637 10638 10639 10640 10641 10642 10642 10642 10643 10644 10644 10644 10645 10646 10647 10648 10650 10650 10650 10650 10650 10651 10652 10653 10654 10654 10653 10653 10655 10656 10657 10657 10658 10658 10659 10659 10660 10661 10662 10663 10663 10662 10662 10663 10663 10663 10664 10664 10664 10664 10664 10664 10664 10663 10662 10661 10660 10660 10659 10658 10658 10658 10658 10658 10658 10659 10659 10659 10660 10658 10656 10653 10652 10652 10651 10650 10648 10647 10646 10645 10643
10625 10627 10629 10631 10632 10634 10635 10636 10637 10637 10637 10638 10638 10639 10639 10639 10640 10640 10641 10642 10643 10644 10644 10644 10645 10646 10647 10648 10648 10648 10648 10649 10650 10651 10652 10653 10653 10653 10654 10655 10656 10657 10658 10659 10659 10659 10659 10659 10659 10660 10660 10660 10660 10660 10660 10660 10660 10659 10658 10657 10656 10656 10655 10654 10654 10654 10654 10653 10653 10654 10654 10655 10655 10653 10651 10649 10648 10648 10648 10646 10644 10643 10642 10641 10639
10621 10624 10625 10627 10629 10631 10632 10632 10633 10633 10633 10633 10634 10634 10634 10635 10635 10635 10636 10637 10638 10638 10639 10639 10640 10641 10641 10642 10642 10643 10643 10644 10645 10646 10647 10648 10648 10649 10649 10651 10652 10653 10654 10655 10655 10655 10655 10655 10655 10656 10656 10656 10656 10656 10656 10656 10656 10655 10654 10653 10652 10652 10652 10651 10650 10649 10649 10648 10648 10649 10650 10651 10650 10648 10647 10645 10644 10644 10643 10642 10640 10639 10638 10636 10635